sat.trackr.live / text

‹ back to catalog

STARLINK-32955

NORAD 63117 · 2025-039P

PAYLOAD ACTIVE UNKNOWN

§ Identity

Operator
Country
US
Launch date
2025-02-27
Launch site
AFETR
Launch vehicle
Mass (kg)
RCS (m²)

Purposes: comms

External: N2YO · Heavens-Above · Gunter

§ Orbital elements

Epoch: 2026-09-15T13:48:36.388224Z

Period
88.44 min
Inclination
42.9685°
Eccentricity
0.0014693
Mean motion
16.28166397 rev/d
Perigee alt
187.8 km
Apogee alt
207.1 km
Semi-major
6,575.6 km
B*
3.6526e-3
RAAN
314.6341°
Arg perigee
98.3898°
Mean anomaly
261.8656°
Rev number
8,784

§ Raw data

STARLINK-329551 63117U 25039P   26258.57542116  .15228672  90194-5  36526-2 0  99962 63117  42.9685 314.6341 0014693  98.3898 261.8656 16.28166397 87844

JSON: /api/v1/satellites/63117 · /tle

For live sub-satellite position, see the globe view (requires WebGL).

§ Visibility from observer

Set your observer location to see the next 7 days of passes ≥ 10°. The values pass through the URL so the page stays shareable.

No JS? Fill the form by hand. The geolocation button needs JavaScript.